Temp
-4 -4 -4 -4 -4 -4 -4 -4 -4 -4 -4 -4 -4 -4 -4 -4 -4 -4 -4 -4 -4 -4 -3 -3 -4 -4 -4 -4 -4 -4 -4 -4 -4 -4 -4 -4 -4 -5 -4 -5 -5 -7 -6 -5 -6 -6 -6
-5 -4 -4 -4 -4 -4 -4 -4 -4 -4 -4 -4 -4 -4 -4 -4 -4 -4 -4 -4 -4 -4 -4 -4 -4 -4 -4 -4 -4 -5 -4 -5 -4 -4 -4 -3 -4 -5 -4 -5 -5 -6 -6 -5 -6 -6 -6
-5 -5 -4 -4 -4 -4 -4 -4 -4 -4 -4 -4 -4 -4 -4 -4 -4 -4 -4 -4 -4 -4 -4 -4 -4 -4 -4 -4 -5 -5 -5 -5 -5 -5 -4 -4 -5 -5 -4 -6 -5 -7 -6 -5 -6 -6 -6
-5 -5 -5 -4 -4 -4 -4 -4 -4 -4 -4 -4 -4 -4 -4 -4 -4 -4 -4 -4 -4 -4 -4 -4 -4 -4 -4 -4 -4 -5 -5 -5 -5 -5 -5 -5 -5 -5 -4 -5 -6 -6 -6 -5 -6 -6 -6
-5 -5 -5 -5 -5 -5 -5 -5 -5 -5 -4 -4 -4 -4 -4 -4 -4 -4 -4 -4 -5 -5 -5 -5 -5 -5 -4 -4 -4 -4 -5 -6 -6 -6 -5 -6 -5 -5 -5 -5 -5 -6 -6 -6 -6 -6 -6
-5 -5 -5 -5 -5 -5 -5 -5 -5 -5 -5 -5 -5 -5 -5 -5 -5 -5 -4 -4 -5 -5 -5 -5 -5 -4 -4 -5 -4 -5 -5 -6 -6 -6 -6 -6 -6 -6 -6 -5 -6 -6 -6 -6 -6 -5 -6
-5 -5 -5 -5 -5 -5 -5 -5 -5 -5 -5 -5 -5 -5 -5 -5 -5 -5 -5 -5 -5 -5 -5 -5 -5 -5 -5 -5 -5 -5 -5 -6 -6 -6 -7 -7 -6 -7 -7 -6 -6 -6 -6 -6 -6 -6 -6
-5 -5 -5 -5 -5 -5 -5 -5 -5 -5 -5 -5 -5 -5 -5 -5 -5 -5 -5 -5 -5 -5 -5 -5 -5 -5 -5 -5 -5 -5 -5 -6 -7 -7 -7 -7 -7 -8 -7 -6 -6 -6 -7 -7 -7 -7 -7
-5 -5 -5 -5 -5 -5 -5 -5 -5 -5 -5 -5 -5 -5 -5 -5 -5 -5 -5 -5 -5 -5 -5 -5 -5 -5 -5 -5 -5 -5 -5 -6 -7 -7 -7 -8 -8 -9 -8 -7 -7 -7 -7 -7 -7 -7 -7
-5 -5 -5 -5 -5 -5 -5 -5 -5 -5 -5 -5 -5 -5 -5 -5 -5 -5 -5 -6 -6 -5 -5 -6 -6 -6 -6 -6 -6 -6 -6 -6 -7 -7 -8 -8 -8 -8 -8 -8 -7 -7 -8 -7 -7 -7 -7
-6 -6 -6 -5 -5 -5 -5 -5 -5 -5 -5 -5 -5 -5 -6 -6 -6 -6 -6 -6 -6 -6 -6 -6 -6 -6 -6 -6 -6 -6 -6 -6 -7 -7 -8 -8 -8 -8 -8 -8 -8 -9 -8 -8 -8 -8 -8
-6 -6 -6 -6 -6 -5 -5 -5 -5 -5 -5 -5 -5 -5 -6 -6 -6 -6 -6 -7 -7 -7 -7 -7 -7 -7 -7 -7 -6 -6 -7 -6 -7 -7 -7 -8 -8 -8 -9 -9 -8 -10 -9 -8 -8 -8 -8
-6 -6 -6 -6 -5 -5 -5 -4 -4 -5 -5 -5 -5 -5 -6 -6 -6 -7 -7 -7 -7 -7 -7 -8 -8 -8 -8 -7 -7 -7 -7 -7 -7 -7 -8 -8 -8 -9 -9 -10 -10 -9 -9 -9 -9 -7 -9
-6 -6 -6 -5 -5 -5 -5 -5 -4 -4 -5 -5 -5 -5 -6 -7 -7 -7 -7 -7 -7 -7 -8 -8 -9 -8 -8 -8 -8 -8 -8 -7 -7 -8 -8 -8 -9 -9 -10 -10 -10 -10 -10 -10 -10 -8 -10
-6 -6 -6 -6 -5 -5 -5 -5 -5 -5 -5 -5 -5 -5 -6 -6 -7 -7 -7 -7 -8 -8 -8 -9 -9 -9 -9 -10 -9 -8 -8 -8 -8 -8 -8 -8 -9 -11 -11 -11 -11 -11 -10 -10 -10 -9 -9
-7 -6 -6 -6 -6 -6 -6 -6 -5 -5 -5 -5 -5 -6 -6 -7 -7 -7 -7 -7 -8 -7 -9 -9 -10 -10 -10 -10 -10 -9 -8 -9 -9 -8 -9 -10 -10 -11 -12 -11 -11 -10 -10 -10 -9 -9 -9
-7 -7 -6 -6 -6 -6 -6 -6 -6 -6 -6 -6 -6 -6 -7 -7 -7 -8 -8 -8 -8 -8 -9 -10 -11 -11 -11 -11 -11 -10 -10 -10 -10 -11 -10 -11 -11 -11 -11 -11 -11 -10 -10 -9 -9 -9 -9
-7 -7 -7 -7 -7 -7 -7 -7 -7 -7 -7 -6 -6 -7 -7 -8 -8 -8 -8 -8 -8 -8 -9 -10 -11 -12 -11 -12 -11 -10 -10 -11 -11 -12 -11 -11 -11 -11 -11 -12 -11 -11 -10 -10 -10 -9 -9
-8 -8 -7 -7 -7 -7 -7 -7 -7 -7 -7 -7 -7 -7 -8 -8 -8 -8 -9 -9 -9 -9 -10 -11 -11 -12 -12 -12 -12 -11 -11 -11 -12 -12 -12 -12 -12 -12 -12 -12 -12 -11 -11 -10 -9 -9 -8
-8 -8 -8 -8 -7 -8 -8 -8 -8 -8 -8 -7 -7 -8 -8 -9 -9 -9 -9 -10 -10 -10 -11 -11 -12 -12 -12 -12 -12 -12 -11 -11 -11 -12 -12 -12 -12 -12 -11 -12 -11 -11 -11 -10 -10 -10 -10
-8 -8 -8 -8 -8 -8 -8 -8 -8 -8 -8 -9 -9 -9 -9 -9 -10 -10 -10 -10 -10 -10 -11 -11 -12 -12 -12 -13 -12 -12 -12 -11 -12 -11 -12 -12 -12 -11 -12 -12 -12 -11 -11 -10 -10 -10 -9
-8 -8 -8 -8 -8 -8 -9 -9 -9 -9 -9 -10 -10 -10 -11 -10 -10 -11 -11 -12 -11 -11 -11 -11 -11 -12 -12 -13 -12 -13 -12 -12 -12 -12 -12 -12 -12 -12 -11 -11 -12 -12 -12 -11 -11 -10 -9
-8 -8 -8 -8 -9 -9 -9 -9 -9 -9 -10 -10 -11 -11 -11 -12 -11 -11 -11 -12 -12 -12 -12 -12 -12 -12 -13 -13 -12 -13 -13 -12 -12 -12 -13 -13 -12 -11 -11 -11 -11 -11 -11 -10 -10 -10 -10
-8 -8 -9 -9 -9 -10 -10 -10 -10 -10 -11 -11 -12 -12 -12 -12 -12 -12 -12 -13 -13 -13 -13 -13 -12 -12 -13 -13 -12 -12 -14 -13 -12 -12 -12 -12 -12 -11 -11 -11 -10 -10 -10 -10 -9 -9 -9
-9 -9 -9 -10 -10 -11 -11 -11 -11 -11 -12 -12 -12 -12 -13 -13 -13 -13 -13 -13 -13 -13 -13 -14 -13 -13 -13 -13 -13 -12 -12 -14 -13 -12 -12 -12 -11 -11 -11 -11 -11 -10 -10 -10 -9 -9 -9
-10 -10 -10 -10 -11 -11 -11 -11 -12 -12 -13 -13 -13 -13 -13 -13 -14 -14 -13 -13 -14 -14 -14 -14 -14 -14 -14 -14 -13 -13 -12 -13 -13 -12 -12 -12 -11 -10 -11 -11 -11 -11 -11 -10 -9 -9 -10
-10 -11 -11 -11 -12 -12 -12 -12 -13 -13 -13 -13 -14 -14 -13 -13 -14 -14 -14 -14 -14 -14 -14 -14 -14 -14 -14 -14 -14 -13 -13 -14 -14 -13 -12 -12 -11 -11 -11 -11 -11 -11 -11 -10 -10 -10 -10
-11 -11 -12 -12 -12 -13 -13 -13 -14 -14 -14 -14 -14 -14 -14 -14 -14 -13 -14 -15 -14 -14 -14 -14 -14 -14 -14 -15 -14 -14 -13 -13 -13 -13 -13 -13 -11 -11 -12 -11 -11 -11 -11 -11 -11 -10 -10
-12 -12 -13 -13 -13 -14 -14 -14 -14 -14 -14 -14 -14 -14 -14 -14 -15 -14 -14 -15 -15 -15 -15 -15 -15 -14 -14 -14 -14 -14 -13 -13 -13 -14 -14 -13 -12 -12 -12 -11 -11 -11 -12 -12 -11 -11 -9
Height
5884 5885 5885 5885 5885 5885 5885 5885 5885 5885 5885 5884 5884 5883 5883 5883 5882 5881 5881 5880 5879 5878 5876 5875 5874 5873 5872 5872 5873 5873 5873 5874 5874 5875 5876 5877 5877 5879 5879 5880 5879 5879 5879 5878 5877 5877 5877
5885 5886 5886 5886 5886 5886 5886 5886 5886 5886 5885 5885 5884 5884 5883 5882 5882 5881 5881 5880 5879 5878 5876 5875 5873 5872 5871 5871 5870 5870 5870 5871 5872 5873 5874 5876 5877 5878 5878 5880 5879 5879 5880 5879 5878 5879 5879
5886 5886 5886 5887 5887 5887 5887 5886 5886 5885 5885 5884 5884 5883 5882 5882 5881 5880 5879 5879 5878 5877 5876 5874 5872 5871 5869 5869 5867 5867 5867 5868 5869 5871 5872 5874 5875 5875 5877 5878 5877 5878 5880 5880 5879 5879 5879
5886 5886 5886 5886 5886 5886 5886 5885 5885 5884 5884 5883 5882 5882 5881 5880 5879 5878 5878 5877 5876 5875 5874 5872 5871 5869 5867 5866 5865 5863 5863 5864 5865 5866 5868 5872 5872 5872 5875 5876 5876 5877 5879 5879 5878 5879 5879
5885 5885 5885 5885 5885 5885 5884 5884 5883 5882 5882 5881 5880 5880 5878 5877 5876 5876 5875 5875 5874 5873 5871 5870 5869 5867 5865 5864 5862 5861 5860 5860 5861 5862 5864 5868 5868 5870 5873 5874 5875 5876 5877 5878 5878 5878 5878
5884 5884 5884 5883 5883 5882 5882 5881 5880 5879 5878 5877 5877 5876 5874 5873 5872 5872 5872 5872 5871 5870 5868 5867 5866 5866 5863 5862 5860 5858 5856 5856 5857 5858 5861 5863 5865 5866 5872 5872 5873 5873 5874 5876 5876 5878 5876
5883 5882 5881 5880 5879 5878 5877 5876 5875 5874 5873 5872 5871 5870 5869 5868 5866 5867 5868 5868 5868 5866 5864 5864 5863 5860 5859 5859 5858 5856 5853 5852 5853 5855 5856 5858 5861 5865 5866 5865 5868 5870 5872 5873 5874 5876 5876
5880 5879 5878 5876 5875 5874 5872 5871 5870 5868 5866 5866 5865 5863 5862 5861 5859 5860 5863 5862 5861 5860 5859 5859 5858 5856 5855 5854 5855 5852 5851 5850 5849 5851 5853 5855 5859 5859 5860 5861 5865 5868 5870 5872 5873 5873 5875
5876 5874 5872 5871 5869 5868 5866 5864 5863 5861 5859 5858 5857 5855 5854 5854 5851 5852 5856 5855 5854 5853 5853 5853 5852 5851 5851 5850 5850 5849 5847 5846 5846 5846 5849 5851 5853 5852 5855 5857 5861 5865 5868 5869 5870 5871 5873
5870 5868 5867 5865 5863 5861 5859 5857 5855 5853 5851 5850 5849 5847 5845 5844 5845 5844 5845 5846 5846 5846 5847 5846 5846 5846 5845 5844 5844 5844 5844 5843 5842 5842 5844 5846 5848 5849 5852 5855 5858 5861 5864 5865 5867 5868 5871
5864 5862 5861 5859 5856 5854 5852 5850 5848 5846 5843 5841 5840 5839 5836 5834 5834 5836 5836 5836 5836 5838 5839 5840 5839 5838 5839 5839 5838 5838 5838 5838 5839 5838 5841 5843 5844 5846 5849 5853 5855 5860 5860 5862 5863 5864 5868
5859 5857 5856 5854 5851 5848 5846 5844 5842 5839 5836 5833 5832 5831 5828 5827 5826 5828 5826 5826 5827 5830 5831 5831 5831 5831 5832 5832 5833 5833 5834 5834 5835 5835 5835 5838 5840 5843 5847 5848 5851 5854 5857 5859 5860 5863 5867
5854 5853 5851 5848 5845 5842 5839 5837 5835 5832 5829 5826 5824 5825 5823 5820 5820 5819 5818 5818 5820 5821 5824 5822 5823 5824 5825 5826 5827 5828 5829 5830 5831 5832 5832 5834 5836 5840 5843 5846 5848 5850 5853 5855 5857 5860 5864
5850 5847 5845 5842 5839 5837 5834 5831 5829 5827 5824 5820 5818 5817 5816 5815 5811 5811 5810 5811 5813 5814 5813 5814 5817 5817 5820 5820 5821 5821 5823 5824 5825 5828 5827 5829 5833 5837 5841 5844 5846 5847 5849 5851 5851 5857 5861
5844 5841 5839 5836 5834 5831 5828 5826 5822 5820 5818 5814 5811 5810 5808 5806 5805 5803 5802 5802 5806 5804 5805 5806 5809 5810 5813 5814 5816 5817 5818 5820 5821 5823 5826 5827 5830 5834 5837 5840 5843 5843 5844 5848 5849 5852 5856
5837 5835 5832 5830 5827 5824 5821 5818 5815 5812 5810 5807 5803 5801 5799 5798 5796 5795 5794 5796 5795 5795 5796 5797 5800 5803 5806 5808 5811 5812 5813 5816 5817 5819 5819 5824 5828 5831 5834 5836 5837 5840 5841 5842 5844 5846 5849
5831 5828 5825 5822 5819 5816 5813 5810 5807 5804 5801 5799 5796 5793 5791 5789 5787 5785 5785 5785 5785 5784 5786 5790 5791 5796 5799 5801 5805 5807 5810 5812 5814 5817 5818 5821 5826 5829 5832 5832 5834 5835 5835 5837 5840 5843 5844
5823 5820 5817 5814 5811 5807 5804 5801 5798 5795 5792 5788 5786 5784 5781 5779 5778 5776 5776 5776 5777 5775 5777 5780 5783 5787 5791 5792 5797 5801 5807 5809 5812 5814 5817 5821 5824 5826 5828 5830 5831 5832 5832 5834 5836 5840 5841
5814 5811 5808 5804 5801 5798 5794 5792 5789 5786 5783 5779 5776 5774 5772 5769 5767 5766 5766 5766 5766 5766 5767 5771 5774 5777 5780 5786 5793 5796 5802 5807 5808 5811 5814 5818 5819 5822 5823 5827 5828 5828 5830 5832 5834 5837 5838
5805 5802 5798 5795 5792 5789 5786 5783 5780 5776 5773 5770 5767 5764 5762 5759 5757 5756 5755 5755 5755 5756 5756 5761 5766 5769 5772 5780 5785 5790 5795 5801 5804 5807 5810 5814 5816 5818 5821 5823 5824 5826 5827 5829 5831 5833 5835
5797 5793 5790 5786 5783 5780 5776 5773 5770 5766 5763 5760 5756 5753 5750 5749 5748 5746 5744 5744 5744 5746 5748 5751 5755 5760 5764 5774 5778 5783 5787 5793 5799 5802 5805 5809 5811 5814 5816 5817 5818 5820 5822 5823 5825 5827 5829
5788 5783 5780 5776 5772 5769 5765 5761 5759 5756 5752 5748 5746 5743 5740 5738 5735 5736 5736 5736 5734 5736 5738 5741 5744 5749 5754 5766 5768 5774 5780 5786 5793 5796 5799 5803 5806 5809 5812 5814 5815 5815 5816 5817 5819 5820 5822
5777 5773 5769 5766 5762 5758 5755 5751 5747 5744 5740 5737 5734 5733 5731 5729 5726 5725 5725 5725 5727 5726 5729 5730 5734 5739 5746 5755 5758 5765 5772 5778 5784 5788 5794 5798 5801 5804 5805 5807 5808 5809 5810 5812 5814 5815 5818
5766 5763 5759 5754 5751 5747 5743 5739 5735 5732 5729 5726 5724 5723 5721 5719 5716 5715 5716 5716 5716 5717 5720 5721 5724 5729 5738 5743 5751 5755 5763 5772 5778 5783 5785 5789 5793 5797 5799 5801 5802 5803 5803 5805 5808 5811 5812
5755 5751 5746 5742 5738 5734 5731 5727 5724 5721 5718 5716 5714 5713 5712 5711 5707 5706 5707 5707 5708 5709 5712 5713 5714 5720 5725 5733 5741 5745 5755 5762 5768 5774 5778 5782 5787 5790 5793 5795 5796 5798 5798 5800 5802 5805 5804
5743 5738 5734 5730 5726 5722 5718 5715 5712 5709 5707 5705 5704 5703 5702 5701 5699 5698 5699 5699 5701 5701 5704 5705 5705 5712 5719 5725 5731 5736 5743 5754 5761 5765 5769 5774 5779 5785 5789 5790 5791 5793 5794 5795 5796 5798 5796
5730 5726 5722 5718 5714 5710 5707 5703 5700 5698 5697 5696 5695 5693 5693 5693 5690 5691 5691 5692 5693 5694 5697 5697 5699 5706 5711 5717 5722 5728 5736 5740 5752 5757 5763 5768 5773 5779 5782 5785 5788 5789 5789 5789 5791 5792 5789
5717 5713 5710 5706 5702 5699 5695 5692 5690 5689 5687 5686 5686 5685 5685 5686 5682 5684 5684 5685 5685 5687 5689 5690 5694 5697 5704 5711 5716 5720 5728 5734 5739 5750 5754 5762 5768 5773 5777 5780 5785 5784 5784 5784 5783 5782 5783
5705 5701 5697 5694 5690 5688 5686 5684 5682 5681 5679 5677 5677 5678 5678 5679 5677 5676 5677 5678 5679 5679 5682 5682 5685 5690 5694 5702 5710 5716 5721 5730 5735 5742 5749 5755 5762 5768 5772 5774 5778 5779 5779 5777 5776 5777 5777
Wind_Speed
4 4 4 5 5 5 5 5 5 4 3 2 2 3 2 3 3 4 5 6 7 8 9 9 9 10 13 14 14 15 14 13 13 11 9 8 6 5 5 2 5 2 3 3 9 9 10
2 3 3 3 3 3 2 1 0 1 2 2 2 3 3 3 3 4 5 7 8 9 10 10 10 11 11 11 13 16 18 18 16 14 12 7 7 6 4 2 3 0 2 3 7 7 8
2 2 2 2 3 3 3 4 4 4 5 5 6 6 6 6 6 7 8 7 8 10 11 12 12 12 12 13 12 14 18 19 19 17 17 11 10 9 6 3 1 2 5 4 2 4 7
4 5 5 6 7 7 8 8 8 9 9 10 10 11 11 11 11 12 12 12 12 11 12 13 13 14 15 14 13 14 15 19 20 22 22 16 14 16 10 7 4 6 9 8 4 1 3
7 8 9 11 12 12 13 13 13 13 14 14 15 16 17 17 17 17 16 16 15 15 14 13 14 15 16 16 15 14 16 17 20 22 22 19 19 20 14 12 8 10 14 11 9 6 3
9 11 13 14 15 17 18 19 19 20 21 21 22 22 23 24 24 23 21 20 19 19 19 17 17 17 17 16 17 15 14 17 18 21 21 21 23 23 14 16 14 15 17 15 15 12 7
12 13 14 15 17 19 21 23 24 25 26 27 27 28 28 28 29 27 25 23 22 22 22 22 21 21 19 17 17 15 14 14 17 19 19 21 23 19 16 22 19 15 16 15 14 11 14
18 19 20 21 23 24 26 27 28 29 30 30 31 32 32 31 33 31 27 26 26 26 26 25 24 24 23 21 19 16 15 14 15 18 19 21 17 18 24 25 21 17 16 15 13 12 15
23 25 25 26 27 28 30 32 33 35 36 36 37 38 38 37 38 37 32 31 30 31 29 28 27 25 25 24 20 18 16 14 14 17 17 21 23 25 26 26 23 20 18 16 15 11 12
27 27 27 26 26 29 30 31 33 34 36 38 39 40 42 42 42 41 39 37 35 33 31 31 28 28 27 25 23 19 17 15 17 16 19 23 25 25 25 25 23 21 19 19 17 13 15
20 20 23 24 24 25 24 24 24 26 28 30 32 34 37 39 38 37 37 37 37 36 34 32 31 29 26 25 24 21 17 16 18 17 16 20 23 26 25 23 24 19 22 20 18 19 12
18 19 19 19 19 19 20 22 24 23 24 25 24 25 30 31 32 31 32 34 35 33 30 31 30 28 26 25 24 22 20 18 18 16 17 20 21 22 24 28 25 25 25 24 22 19 10
18 16 17 19 23 26 26 27 29 28 28 29 29 25 24 28 28 28 30 31 31 29 27 31 31 32 29 27 27 24 22 21 19 16 19 20 21 19 21 24 28 28 27 27 26 20 11
20 22 24 25 28 29 29 31 32 30 29 31 31 29 27 27 30 29 31 31 28 27 29 31 30 32 30 28 27 26 24 20 18 18 23 23 22 15 13 19 27 28 25 28 31 17 12
24 26 27 29 30 31 31 32 32 30 28 30 31 31 29 28 28 29 31 31 24 28 28 31 30 32 30 28 27 27 23 19 20 21 20 23 22 18 19 21 24 29 29 28 28 23 20
25 27 29 31 32 33 33 32 34 33 30 31 33 33 29 28 28 29 30 29 28 29 30 31 34 34 32 32 28 27 25 19 15 18 19 19 19 25 23 24 27 23 22 27 28 28 25
29 30 33 34 34 34 33 32 33 34 34 35 36 35 32 30 30 30 30 29 30 33 32 33 37 35 34 33 30 29 22 17 18 15 15 20 21 24 20 21 20 21 22 25 24 26 26
34 35 36 36 35 36 36 37 36 38 38 39 38 36 34 33 32 30 28 29 32 36 36 35 38 37 35 37 35 31 25 21 13 13 16 16 21 24 18 15 15 17 22 22 22 19 18
35 36 37 37 37 37 37 36 35 35 36 37 38 37 35 34 32 30 28 27 31 34 33 32 40 42 41 40 36 32 27 25 19 17 12 14 20 22 20 20 20 18 14 15 19 19 21
36 36 37 37 37 36 36 37 38 37 38 42 43 40 36 33 31 30 27 27 30 33 34 31 37 44 46 41 38 35 31 27 28 24 17 18 23 21 17 17 22 22 21 17 16 16 16
36 37 38 38 36 38 40 39 40 42 43 43 41 39 37 33 30 29 29 29 30 32 34 34 36 44 51 44 40 37 35 28 27 25 25 23 25 20 16 12 16 22 24 25 22 21 20
40 42 43 42 41 41 41 42 43 42 43 40 37 35 36 36 35 30 27 28 30 31 32 34 39 44 51 46 42 39 38 31 28 24 23 20 23 21 21 19 21 28 31 28 27 26 23
41 41 42 43 42 41 42 42 42 41 41 38 37 35 34 33 34 32 30 26 26 30 31 33 38 45 48 49 49 41 39 38 35 24 24 28 29 28 24 20 23 29 32 29 27 27 27
45 45 45 44 43 43 43 43 42 40 37 37 35 34 32 30 32 32 30 26 26 28 26 32 34 42 43 48 57 41 35 35 36 33 32 31 31 31 27 25 25 25 29 30 28 26 27
47 47 47 45 43 44 44 41 40 39 37 35 34 32 29 28 30 33 28 26 24 26 24 29 34 38 47 47 55 52 44 38 41 40 40 35 33 35 30 27 25 23 24 26 27 27 28
48 47 45 44 44 43 41 40 41 38 36 33 32 29 28 27 28 29 26 25 23 24 23 26 35 36 44 45 54 57 51 44 44 46 46 40 34 28 30 26 25 23 24 25 25 25 27
45 44 43 43 42 40 40 38 34 32 32 31 27 27 26 23 26 24 25 24 21 23 20 26 36 38 45 44 50 55 53 49 44 47 49 39 34 29 30 23 20 20 19 22 23 24 25
43 41 40 39 39 38 34 31 29 29 28 28 26 26 24 21 25 22 22 21 20 21 21 25 33 38 45 48 51 54 54 50 54 46 41 37 40 34 29 25 24 21 19 19 23 23 22
40 38 37 38 37 35 31 29 27 26 25 24 24 24 23 21 23 22 21 20 21 23 20 26 32 38 48 51 53 52 45 50 45 40 39 40 42 37 34 29 25 21 19 21 23 23 22
Wind_Direction
105 101 98 100 99 99 105 108 102 87 64 32 25 29 30 19 20 17 17 11 4 356 348 343 330 306 285 278 272 265 265 265 267 268 271 274 288 284 279 337 344 264 270 76 70 69 118
124 118 126 126 121 120 114 111 90 318 320 323 330 338 342 352 357 352 351 352 347 347 344 343 345 343 334 308 279 268 263 257 260 260 259 267 290 266 267 284 1 50 199 129 117 100 108
193 205 208 214 213 225 243 254 259 267 277 280 285 288 289 292 296 297 302 312 322 332 336 337 335 332 335 332 313 280 264 260 252 254 255 255 264 257 238 222 260 130 249 264 90 62 106
250 252 251 248 247 253 255 258 259 262 265 271 277 283 287 289 292 294 295 296 300 308 316 321 323 325 324 330 321 300 282 263 254 251 252 250 246 246 244 228 188 194 237 254 289 105 76
264 266 265 265 263 263 263 265 266 269 271 272 276 280 285 288 292 294 296 298 297 296 296 299 306 317 317 322 324 316 288 273 258 250 251 248 246 251 243 235 218 221 230 237 240 228 159
284 281 280 279 277 276 274 272 272 274 276 277 278 280 283 285 286 289 293 294 294 292 289 291 293 299 308 316 316 316 298 277 266 257 250 244 244 250 249 250 226 225 236 234 245 248 246
291 289 287 285 283 280 278 277 276 276 277 279 280 280 280 282 284 285 288 289 288 286 288 290 291 289 293 301 307 307 301 287 272 262 251 243 243 253 239 240 234 233 238 238 247 242 253
285 283 282 282 282 281 280 280 280 279 280 280 279 279 280 280 280 280 282 281 281 281 282 283 284 285 286 291 302 303 300 292 272 257 252 246 241 234 234 239 241 231 238 242 245 256 253
290 289 289 287 287 286 284 281 280 278 277 277 277 278 278 277 278 279 279 277 275 273 276 277 279 279 281 286 290 293 296 291 276 260 249 240 230 225 230 237 242 238 238 242 248 253 246
292 292 292 290 288 286 284 282 283 284 282 280 278 278 278 277 276 278 278 275 273 272 272 274 275 275 277 278 279 284 287 279 272 251 235 233 234 235 236 244 245 247 248 246 251 260 233
294 294 295 297 295 290 290 291 290 289 286 283 279 277 277 278 278 278 277 276 273 272 270 270 271 271 269 269 274 276 279 272 258 253 244 244 239 236 234 239 240 236 246 248 253 264 238
302 303 300 304 309 309 306 307 308 307 305 297 291 281 278 278 279 282 278 274 273 270 269 268 267 266 264 263 265 272 273 264 260 252 244 238 237 234 225 222 236 234 239 250 255 261 217
304 306 311 316 323 325 321 314 313 312 310 308 306 300 288 285 280 276 275 273 270 269 268 261 260 260 258 259 263 265 261 262 257 246 238 235 230 230 228 221 228 237 241 248 254 252 229
304 305 309 312 318 321 319 316 311 306 303 303 304 300 298 288 286 281 275 274 272 268 260 258 256 259 260 258 254 256 252 252 253 241 227 226 222 222 235 226 232 242 244 249 255 253 210
308 311 308 312 315 316 314 313 312 308 303 304 304 299 295 290 282 278 278 277 271 262 256 253 248 251 250 245 246 251 244 238 243 231 222 227 215 198 212 213 219 235 241 241 247 251 228
306 308 309 311 313 313 312 309 307 305 306 307 307 303 298 292 283 276 275 275 266 260 255 247 243 242 241 243 241 240 239 226 222 217 202 208 205 199 204 219 226 233 233 229 235 239 235
304 306 307 308 309 309 309 306 304 304 306 305 304 301 298 293 287 278 273 267 257 252 250 241 240 235 234 238 236 234 227 215 209 213 201 190 194 205 208 230 234 230 227 228 228 234 239
304 304 305 305 305 304 303 302 301 301 300 300 300 301 300 298 293 284 272 264 256 256 252 237 232 235 229 232 233 231 211 210 201 201 218 212 212 215 209 229 241 241 230 223 220 224 237
303 303 303 303 303 305 304 304 302 303 302 303 301 301 300 299 293 285 276 262 255 254 253 245 231 229 229 225 228 230 212 207 199 196 217 226 223 212 215 221 230 238 235 236 239 240 240
304 304 304 304 302 300 302 302 301 302 302 301 301 297 295 295 289 283 272 262 254 251 241 237 229 226 229 221 227 226 227 214 215 207 211 217 223 226 235 256 253 247 250 241 237 242 246
301 300 302 300 300 298 299 300 299 299 298 298 298 296 295 293 285 277 271 261 253 249 245 237 226 224 226 222 223 223 227 226 225 227 213 228 226 226 231 272 257 248 249 251 253 256 259
300 299 299 300 301 299 297 296 299 297 297 297 295 293 294 293 289 282 267 259 257 251 246 240 230 221 224 218 216 219 225 221 221 231 231 240 243 242 250 249 247 250 251 252 260 271 276
302 302 301 301 298 295 296 298 298 298 297 293 292 289 288 287 283 280 273 263 250 251 247 242 233 224 222 215 219 211 219 223 221 213 231 242 244 250 258 271 267 252 257 261 262 268 273
300 298 297 299 298 295 297 297 297 296 292 291 288 285 285 283 280 277 270 266 256 250 246 244 237 228 219 218 222 212 199 215 222 219 225 237 253 259 267 274 268 262 257 258 258 261 266
299 298 297 296 296 295 296 295 295 292 289 286 284 284 283 279 276 274 271 266 258 252 247 239 239 228 218 216 218 222 209 202 217 228 239 247 257 265 266 271 274 261 256 255 255 259 266
298 296 294 295 295 295 293 293 292 289 286 282 283 280 278 277 272 270 271 266 259 252 244 237 232 226 213 214 217 223 221 205 213 225 234 242 257 265 274 267 266 266 267 264 264 268 271
297 295 294 295 294 293 294 293 290 287 284 282 277 275 276 273 270 271 269 268 257 253 244 235 227 222 212 212 220 226 221 195 211 224 232 240 255 260 275 268 269 266 267 260 261 260 268
296 295 295 294 294 295 292 289 287 284 281 280 276 273 271 268 269 275 271 261 261 252 241 233 227 221 212 211 218 225 226 225 219 222 229 240 251 251 260 265 266 273 263 261 261 265 270
295 294 295 295 292 290 288 286 286 284 282 279 275 269 264 268 268 271 267 257 253 249 244 231 226 223 214 211 217 220 233 234 218 221 225 239 250 251 250 260 261 282 268 278 269 269 273